Regional Weather Roundup
Issued by NWS

Home | Current Version | Previous Version | Graphics & Text | Print | Product List | Glossary On
Versions: 1 2 3 4 5 6 7 8 9 10 11 12 13 14 15 16 17 18 19 20 21 22 23 24 25 26 27 28 29 30 31 32 33 34 35 36 37 38 39 40 41 42 43 44 45 46 47 48 49 50
000
ASUS43 KFSD 232210
RWRSD

WEATHER ROUNDUP FOR SOUTH DAKOTA
NATIONAL WEATHER SERVICE SIOUX FALLS SD
500 PM CDT WED AUG 23 2017

NOTE: "FAIR" INDICATES FEW OR NO CLOUDS BELOW 12,000 FEET WITH NO
SIGNIFICANT WEATHER AND/OR OBSTRUCTIONS TO VISIBILITY.


SDZ001>005-009-010-012>017-232300-
NORTHWEST AND NORTH CENTRAL SOUTH DAKOTA

CITY           SKY/WX    TMP DP  RH WIND       PRES   REMARKS
BUFFALO          N/A     89  44  20 NW9       29.91F
FAITH            N/A     84  58  40 E7        29.96S
MOBRIDGE       SUNNY     83  62  49 E14G25    29.92F
$$

SDZ012>016-024>037-041>051-057-063-072>074-232300-
SOUTHWEST AND SOUTH CENTRAL SOUTH DAKOTA

CITY           SKY/WX    TMP DP  RH WIND       PRES   REMARKS
RAPID CTY ARPT SUNNY     89  48  24 N6        29.96F
PIERRE         SUNNY     85  60  42 E8        29.89F
CUSTER         PTSUNNY   77  52  41 E16       30.12F
ELLSWORTH AFB  SUNNY     89  49  24 NE6       29.96F
PHILIP         SUNNY     94  53  25 NE9       29.89F
PINE RIDGE     MOSUNNY   94  53  25 S7        29.95F
SPEARFISH      LGT RAIN  88  46  23 NE12      30.02F
WINNER         FAIR      88  64  44 S15G22    29.92F
$$

SDZ004>011-016>023-039-040-232300-
NORTHEAST SOUTH DAKOTA

CITY           SKY/WX    TMP DP  RH WIND       PRES   REMARKS
ABERDEEN       SUNNY     81  56  42 SE12      29.96F
WATERTOWN      SUNNY     75  56  51 SE10      30.01F
BROOKINGS      SUNNY     74  57  55 SE12      30.02F
SISSETON         N/A     77  58  51 SE9       29.99F
$$

SDZ017-020-022-023-036>040-048>070-232300-
SOUTHEAST SOUTH DAKOTA

CITY           SKY/WX    TMP DP  RH WIND       PRES   REMARKS
SIOUX FALLS    PTSUNNY   79  61  53 S14       30.02F
HURON          PTSUNNY   79  59  50 S15       29.95F
CHAMBERLAIN    SUNNY     88  64  45 S8        29.92F
MITCHELL       MOSUNNY   81  61  50 S16       29.96F
YANKTON        SUNNY     79  61  53 SE16      30.00F
$$

ABBREVIATIONS USED IN REMARKS
   TC - TEMPERATURE IN CELSIUS
  WCI - WIND CHILL INDEX
   HX - HEAT INDEX
  VSB - VISIBILITY





USA.gov is the U.S. government's official web portal to all federal, state and local government web resources and services.